Home > Weather > Sacramento > Past weeks

Flag for USA Past Weather in Sacramento, California, USA — Yesterday and Last 2 Weeks

Now
54 °F

Clear.


Feels Like: 53 °F
Forecast: 53 / 75 °F
Wind: 6 mph from Southeast

Location: Sacramento Executive Airport

Current Time: May 24, 2016 at 4:58:12 AM

Latest Report: May 24, 2016 at 3:53 AM


Visibility: 10 mi

Pressure: 29.86 "Hg

Humidity: 86%

Dew Point: 50 °F

Location of SacramentoLocation

Past Weather in Sacramento — Graph

°F

Sacramento Temperature Yesterday

Maximum temperature yesterday: 75 °F (at 2:53 PM)
Minimum temperature yesterday: 51 °F (at 4:53 AM)
Average temperature yesterday: 62 °F

High & Low Weather Summary for the Past Weeks

 TemperatureHumidityPressure
High97 °F (May 18, 3:53 PM)93% (May 11, 6:53 AM)30.09 "Hg (May 11, 6:53 AM)
Low49 °F (May 22, 3:53 AM)12% (May 18, 3:53 PM)29.64 "Hg (May 20, 1:53 AM)
Average66 °F58%29.91 "Hg
* Reported May 9 2:53 AM — May 24 2:53 AM, Sacramento, Weather by CustomWeather, © 2016

Note: Actual official high and low records may vary slightly from our data, if they occured in-between our weather recording intervals... More about our weather records

Advertising

Sacramento Weather History for the Previous 24 Hours

Scroll right to see more
 ConditionsComfort  
Time TempWeatherWind HumidityBarometerVisibility
2:53 AM
Tue, May 24
54 °FClear.5 mph86%29.85 "Hg10 mi
1:53 AM55 °FClear.3 mph83%29.86 "Hg10 mi
12:53 AM56 °FPassing clouds.3 mph81%29.86 "Hg10 mi
11:53 PM
Mon, May 23
56 °FClear.N/A81%29.86 "Hg10 mi
10:53 PM58 °FMostly cloudy.10 mph75%29.86 "Hg10 mi
9:53 PM60 °FOvercast.12 mph69%29.85 "Hg10 mi
8:53 PM63 °FPartly sunny.10 mph63%29.84 "Hg10 mi
7:53 PM66 °FPartly sunny.15 mph54%29.83 "Hg10 mi
6:53 PM70 °FOvercast.13 mph42%29.83 "Hg10 mi
5:53 PM73 °FOvercast.12 mph38%29.83 "Hg10 mi
4:53 PM74 °FPartly sunny.9 mph37%29.84 "Hg10 mi
3:53 PM74 °FSunny.3 mph29%29.85 "Hg10 mi
2:53 PM75 °FSunny.7 mph25%29.87 "Hg10 mi
1:53 PM73 °FSunny.6 mph33%29.89 "Hg10 mi
12:53 PM71 °FSunny.3 mph38%29.90 "Hg10 mi
11:53 AM66 °FSunny.3 mph50%29.92 "Hg10 mi
10:53 AM66 °FSunny.7 mph52%29.93 "Hg10 mi
9:53 AM62 °FScattered clouds.5 mph60%29.94 "Hg10 mi
8:53 AM58 °FSunny.6 mph70%29.95 "Hg10 mi
7:53 AM56 °FSunny.5 mph72%29.96 "Hg10 mi
6:53 AM53 °FPassing clouds.6 mph80%29.95 "Hg10 mi
5:53 AM52 °FClear.5 mph80%29.95 "Hg10 mi
4:53 AM51 °FClear.6 mph83%29.95 "Hg10 mi
Weather by CustomWeather, © 2016

See weather overviewHow to use our weather pages